User: anonymous   Login
Location: Hormuz
(27.0871°N, 56.4580°E)
Time: 11:20:34
(UTC+04:30)
Language:

ISS - Orbit

View from above orbital plane
View from above orbital plane
View from above satellite
View from above satellite

Ground track
Ground track

The orbit data is extracted from the following two-line orbital elements,

1 25544U 98067A   21215.85360061  .00001804  00000-0  41053-4 0  9990
2 25544  51.6430 107.0086 0001317 252.4656 228.3182 15.48870648295985
Epoch (UTC): 03 August 2021 20:29:11
Eccentricity: 0.0001317
inclination: 51.6430°
perigee height: 419 km
apogee height: 421 km
right ascension of ascending node: 107.0086°
argument of perigee: 252.4656°
revolutions per day: 15.48870648
mean anomaly at epoch: 228.3182°
orbit number at epoch: 29598

The dashed part of the orbit path shows where the satellite is in the earth's shadow,  

DLR